Volver al catálogo

STARLINK-37760

ActivoComunicacionesSSO
NORAD 69222·PAYLOAD·🇺🇸 United States

Lanzado May 26, 2026 desde Vandenberg Space Force Base

Loading…

Próximos Pases (próximas 24 horas)

TLE

ActualizadoSource: CelesTrak SupGP

Época: Sep 14, 2026, 22:58 UTC

1 69222C 26115M   26257.95743056  .00064443  00000+0  19982-2 0  2575
2 69222  97.2834 274.1335 0001512  97.8082 166.3885 15.33442614    15

Sigue STARLINK-37760 en tiempo real con AllMySat

Download on the App Store